Time,TemperatureF,DewpointF,PressureIn,WindDirection,WindDirectionDegrees,WindSpeedMPH,WindSpeedGustMPH,Humidity,HourlyPrecipIn,Conditions,Clouds,dailyrainin,SoftwareType,DateUTC
2013-02-09 00:09:00,36.6,34.0,29.76,West,279,21.0,-999.0,91,-99.99,,,0.00,weatherlink.com 1.10,2013-02-09 05:09:00,
2013-02-09 00:24:00,36.5,34.0,29.77,NW,304,9.0,-999.0,89,-99.99,,,0.00,weatherlink.com 1.10,2013-02-09 05:24:00,
2013-02-09 00:39:00,35.8,32.0,29.77,NW,321,18.0,-999.0,87,-99.99,,,0.00,weatherlink.com 1.10,2013-02-09 05:39:00,
2013-02-09 00:55:00,35.3,32.0,29.77,WNW,284,13.0,-999.0,86,-99.99,,,0.00,weatherlink.com 1.10,2013-02-09 05:55:00,
2013-02-09 01:09:00,34.8,31.0,29.78,West,281,14.0,-999.0,87,-99.99,,,0.01,weatherlink.com 1.10,2013-02-09 06:09:00,
2013-02-09 01:24:00,34.3,31.0,29.79,West,275,16.0,-999.0,88,-99.99,,,0.01,weatherlink.com 1.10,2013-02-09 06:24:00,
2013-02-09 01:39:00,34.1,31.0,29.80,WNW,300,11.0,-999.0,88,-99.99,,,0.01,weatherlink.com 1.10,2013-02-09 06:39:00,
2013-02-09 01:54:00,34.0,31.0,29.81,NW,309,17.0,-999.0,88,-99.99,,,0.01,weatherlink.com 1.10,2013-02-09 06:54:00,
2013-02-09 02:17:00,33.8,30.0,29.83,WNW,292,15.0,-999.0,84,-99.99,,,0.01,weatherlink.com 1.10,2013-02-09 07:17:00,
2013-02-09 02:24:00,33.8,30.0,29.83,WNW,296,20.0,-999.0,84,-99.99,,,0.01,weatherlink.com 1.10,2013-02-09 07:24:00,
2013-02-09 02:39:00,33.4,28.0,29.83,NW,309,12.0,-999.0,81,-99.99,,,0.01,weatherlink.com 1.10,2013-02-09 07:39:00,
2013-02-09 02:54:00,33.3,28.0,29.84,WNW,300,13.0,-999.0,80,-99.99,,,0.01,weatherlink.com 1.10,2013-02-09 07:54:00,
2013-02-09 03:10:00,33.0,27.0,29.84,NW,316,6.0,-999.0,78,-99.99,,,0.01,weatherlink.com 1.10,2013-02-09 08:10:00,
2013-02-09 03:25:00,32.3,26.0,29.85,NW,305,7.0,-999.0,77,-99.99,,,0.01,weatherlink.com 1.10,2013-02-09 08:25:00,
2013-02-09 03:39:00,31.9,25.0,29.86,WNW,300,8.0,-999.0,77,-99.99,,,0.01,weatherlink.com 1.10,2013-02-09 08:39:00,
2013-02-09 03:54:00,31.1,25.0,29.87,West,267,13.0,-999.0,79,-99.99,,,0.01,weatherlink.com 1.10,2013-02-09 08:54:00,
2013-02-09 04:09:00,30.3,25.0,29.88,NW,309,21.0,-999.0,80,-99.99,,,0.01,weatherlink.com 1.10,2013-02-09 09:09:00,
2013-02-09 04:25:00,30.2,25.0,29.89,NW,316,16.0,-999.0,80,-99.99,,,0.01,weatherlink.com 1.10,2013-02-09 09:25:00,
2013-02-09 04:40:00,30.0,24.0,29.91,WNW,298,14.0,-999.0,79,-99.99,,,0.01,weatherlink.com 1.10,2013-02-09 09:40:00,
2013-02-09 04:54:00,29.1,24.0,29.92,NW,307,13.0,-999.0,80,-99.99,,,0.01,weatherlink.com 1.10,2013-02-09 09:54:00,
2013-02-09 05:09:00,29.2,24.0,29.92,WNW,298,15.0,-999.0,80,-99.99,,,0.01,weatherlink.com 1.10,2013-02-09 10:09:00,
2013-02-09 05:24:00,29.2,23.0,29.93,NW,320,16.0,-999.0,79,-99.99,,,0.01,weatherlink.com 1.10,2013-02-09 10:24:00,
2013-02-09 05:40:00,29.1,23.0,29.94,West,277,19.0,-999.0,79,-99.99,,,0.01,weatherlink.com 1.10,2013-02-09 10:40:00,
2013-02-09 05:54:00,29.2,24.0,29.95,NNW,333,10.0,-999.0,80,-99.99,,,0.01,weatherlink.com 1.10,2013-02-09 10:54:00,
2013-02-09 06:09:00,28.9,23.0,29.95,NW,312,18.0,-999.0,79,-99.99,,,0.01,weatherlink.com 1.10,2013-02-09 11:09:00,
2013-02-09 06:29:00,29.0,22.0,29.96,WNW,292,11.0,-999.0,76,-99.99,,,0.01,weatherlink.com 1.10,2013-02-09 11:29:00,
2013-02-09 06:39:00,29.3,23.0,29.96,WNW,294,22.0,-999.0,76,-99.99,,,0.01,weatherlink.com 1.10,2013-02-09 11:39:00,
2013-02-09 06:54:00,29.4,22.0,29.97,NNW,338,17.0,-999.0,74,-99.99,,,0.01,weatherlink.com 1.10,2013-02-09 11:54:00,
2013-02-09 07:09:00,29.5,22.0,29.98,West,277,16.0,-999.0,72,-99.99,,,0.01,weatherlink.com 1.10,2013-02-09 12:09:00,
2013-02-09 07:24:00,29.2,22.0,29.99,WNW,295,11.0,-999.0,73,-99.99,,,0.01,weatherlink.com 1.10,2013-02-09 12:24:00,
2013-02-09 07:39:00,29.6,22.0,30.00,WNW,289,21.0,-999.0,72,-99.99,,,0.01,weatherlink.com 1.10,2013-02-09 12:39:00,
2013-02-09 07:54:00,29.8,21.0,30.02,NW,304,10.0,-999.0,71,-99.99,,,0.01,weatherlink.com 1.10,2013-02-09 12:54:00,
2013-02-09 08:09:00,29.9,22.0,30.02,NW,312,15.0,-999.0,71,-99.99,,,0.01,weatherlink.com 1.10,2013-02-09 13:09:00,
2013-02-09 08:24:00,30.0,22.0,30.03,WNW,285,10.0,-999.0,71,-99.99,,,0.01,weatherlink.com 1.10,2013-02-09 13:24:00,
2013-02-09 08:39:00,30.4,22.0,30.03,NNW,332,25.0,-999.0,71,-99.99,,,0.01,weatherlink.com 1.10,2013-02-09 13:39:00,
2013-02-09 08:54:00,30.7,22.0,30.04,NW,321,9.0,-999.0,71,-99.99,,,0.01,weatherlink.com 1.10,2013-02-09 13:54:00,
2013-02-09 09:09:00,31.0,22.0,30.05,West,275,18.0,-999.0,70,-99.99,,,0.01,weatherlink.com 1.10,2013-02-09 14:09:00,
2013-02-09 09:24:00,30.9,22.0,30.05,NNW,331,25.0,-999.0,69,-99.99,,,0.01,weatherlink.com 1.10,2013-02-09 14:24:00,
2013-02-09 09:39:00,31.2,22.0,30.05,NW,314,21.0,-999.0,69,-99.99,,,0.01,weatherlink.com 1.10,2013-02-09 14:39:00,
2013-02-09 09:54:00,31.2,22.0,30.06,NW,312,15.0,-999.0,69,-99.99,,,0.01,weatherlink.com 1.10,2013-02-09 14:54:00,
2013-02-09 10:09:00,31.4,21.0,30.07,NNW,333,15.0,-999.0,66,-99.99,,,0.01,weatherlink.com 1.10,2013-02-09 15:09:00,
2013-02-09 10:24:00,31.8,22.0,30.08,WNW,303,11.0,-999.0,66,-99.99,,,0.01,weatherlink.com 1.10,2013-02-09 15:24:00,
2013-02-09 10:40:00,32.1,22.0,30.09,NW,311,6.0,-999.0,66,-99.99,,,0.01,weatherlink.com 1.10,2013-02-09 15:40:00,
2013-02-09 10:55:00,32.8,23.0,30.09,WNW,292,15.0,-999.0,66,-99.99,,,0.01,weatherlink.com 1.10,2013-02-09 15:55:00,
2013-02-09 11:09:00,32.8,21.0,30.10,WNW,290,18.0,-999.0,62,-99.99,,,0.01,weatherlink.com 1.10,2013-02-09 16:09:00,
2013-02-09 11:24:00,33.0,21.0,30.11,NW,307,11.0,-999.0,61,-99.99,,,0.01,weatherlink.com 1.10,2013-02-09 16:24:00,
2013-02-09 11:39:00,33.5,21.0,30.11,WNW,298,10.0,-999.0,61,-99.99,,,0.01,weatherlink.com 1.10,2013-02-09 16:39:00,
2013-02-09 11:54:00,33.7,21.0,30.11,NW,319,15.0,-999.0,60,-99.99,,,0.01,weatherlink.com 1.10,2013-02-09 16:54:00,
2013-02-09 12:10:00,34.1,21.0,30.11,NW,309,14.0,-999.0,60,-99.99,,,0.01,weatherlink.com 1.10,2013-02-09 17:10:00,
2013-02-09 12:24:00,34.4,21.0,30.12,WNW,296,14.0,-999.0,59,-99.99,,,0.01,weatherlink.com 1.10,2013-02-09 17:24:00,
2013-02-09 12:39:00,35.2,23.0,30.11,NW,304,18.0,-999.0,61,-99.99,,,0.01,weatherlink.com 1.10,2013-02-09 17:39:00,
2013-02-09 12:54:00,35.7,22.0,30.12,NW,319,14.0,-999.0,59,-99.99,,,0.01,weatherlink.com 1.10,2013-02-09 17:54:00,
2013-02-09 13:10:00,36.0,22.0,30.12,WNW,294,6.0,-999.0,58,-99.99,,,0.01,weatherlink.com 1.10,2013-02-09 18:10:00,
2013-02-09 13:25:00,36.5,24.0,30.12,North,350,11.0,-999.0,60,-99.99,,,0.01,weatherlink.com 1.10,2013-02-09 18:25:00,
2013-02-09 13:40:00,36.4,24.0,30.12,WNW,302,9.0,-999.0,60,-99.99,,,0.01,weatherlink.com 1.10,2013-02-09 18:40:00,
2013-02-09 13:54:00,36.7,23.0,30.12,NNW,337,7.0,-999.0,58,-99.99,,,0.01,weatherlink.com 1.10,2013-02-09 18:54:00,
2013-02-09 14:09:00,36.9,23.0,30.13,WNW,289,21.0,-999.0,57,-99.99,,,0.01,weatherlink.com 1.10,2013-02-09 19:09:00,
2013-02-09 14:25:00,37.0,22.0,30.14,NW,307,15.0,-999.0,56,-99.99,,,0.01,weatherlink.com 1.10,2013-02-09 19:25:00,
2013-02-09 14:39:00,37.0,23.0,30.14,WNW,287,11.0,-999.0,57,-99.99,,,0.01,weatherlink.com 1.10,2013-02-09 19:39:00,
2013-02-09 14:54:00,36.8,22.0,30.14,NW,309,11.0,-999.0,56,-99.99,,,0.01,weatherlink.com 1.10,2013-02-09 19:54:00,
2013-02-09 15:10:00,37.3,23.0,30.14,WNW,296,11.0,-999.0,57,-99.99,,,0.01,weatherlink.com 1.10,2013-02-09 20:10:00,
2013-02-09 15:25:00,37.3,23.0,30.15,NW,322,9.0,-999.0,57,-99.99,,,0.01,weatherlink.com 1.10,2013-02-09 20:25:00,
2013-02-09 15:40:00,37.4,23.0,30.16,NW,319,12.0,-999.0,57,-99.99,,,0.01,weatherlink.com 1.10,2013-02-09 20:40:00,
2013-02-09 15:55:00,37.1,23.0,30.17,NW,305,13.0,-999.0,58,-99.99,,,0.01,weatherlink.com 1.10,2013-02-09 20:55:00,
2013-02-09 16:10:00,36.9,22.0,30.18,NW,305,16.0,-999.0,56,-99.99,,,0.01,weatherlink.com 1.10,2013-02-09 21:10:00,
2013-02-09 16:24:00,36.6,22.0,30.18,WNW,283,8.0,-999.0,57,-99.99,,,0.01,weatherlink.com 1.10,2013-02-09 21:24:00,
2013-02-09 16:39:00,36.3,23.0,30.19,NW,311,16.0,-999.0,58,-99.99,,,0.01,weatherlink.com 1.10,2013-02-09 21:39:00,
2013-02-09 17:09:00,35.5,22.0,30.20,WNW,302,10.0,-999.0,58,-99.99,,,0.01,weatherlink.com 1.10,2013-02-09 22:09:00,
2013-02-09 17:24:00,35.2,23.0,30.21,WNW,297,7.0,-999.0,61,-99.99,,,0.01,weatherlink.com 1.10,2013-02-09 22:24:00,
2013-02-09 17:39:00,35.1,23.0,30.21,NW,323,12.0,-999.0,61,-99.99,,,0.01,weatherlink.com 1.10,2013-02-09 22:39:00,
2013-02-09 17:54:00,35.0,23.0,30.22,NW,315,10.0,-999.0,61,-99.99,,,0.01,weatherlink.com 1.10,2013-02-09 22:54:00,
2013-02-09 18:09:00,34.7,23.0,30.23,NW,306,7.0,-999.0,62,-99.99,,,0.01,weatherlink.com 1.10,2013-02-09 23:09:00,
2013-02-09 18:24:00,34.6,23.0,30.23,WNW,296,15.0,-999.0,62,-99.99,,,0.01,weatherlink.com 1.10,2013-02-09 23:24:00,
2013-02-09 18:39:00,34.5,23.0,30.24,WNW,300,12.0,-999.0,63,-99.99,,,0.01,weatherlink.com 1.10,2013-02-09 23:39:00,
2013-02-09 18:55:00,34.1,23.0,30.24,NNW,332,10.0,-999.0,64,-99.99,,,0.01,weatherlink.com 1.10,2013-02-09 23:55:00,
2013-02-09 19:09:00,34.0,23.0,30.25,NW,310,7.0,-999.0,64,-99.99,,,0.01,weatherlink.com 1.10,2013-02-10 00:09:00,
2013-02-09 19:24:00,33.7,23.0,30.25,NW,310,9.0,-999.0,64,-99.99,,,0.01,weatherlink.com 1.10,2013-02-10 00:24:00,
2013-02-09 19:39:00,33.8,22.0,30.26,WNW,292,6.0,-999.0,63,-99.99,,,0.01,weatherlink.com 1.10,2013-02-10 00:39:00,
2013-02-09 19:54:00,33.6,23.0,30.27,NW,304,6.0,-999.0,64,-99.99,,,0.01,weatherlink.com 1.10,2013-02-10 00:54:00,
2013-02-09 20:09:00,33.2,22.0,30.28,NW,309,7.0,-999.0,64,-99.99,,,0.01,weatherlink.com 1.10,2013-02-10 01:09:00,
2013-02-09 20:24:00,32.8,22.0,30.29,WNW,298,5.0,-999.0,65,-99.99,,,0.01,weatherlink.com 1.10,2013-02-10 01:24:00,
2013-02-09 20:39:00,32.9,22.0,30.29,NW,317,7.0,-999.0,65,-99.99,,,0.01,weatherlink.com 1.10,2013-02-10 01:39:00,
2013-02-09 20:54:00,32.9,23.0,30.30,WNW,296,6.0,-999.0,66,-99.99,,,0.01,weatherlink.com 1.10,2013-02-10 01:54:00,
2013-02-09 21:09:00,32.9,23.0,30.31,NW,306,9.0,-999.0,67,-99.99,,,0.01,weatherlink.com 1.10,2013-02-10 02:09:00,
2013-02-09 21:24:00,32.7,22.0,30.31,NW,306,8.0,-999.0,66,-99.99,,,0.01,weatherlink.com 1.10,2013-02-10 02:24:00,
2013-02-09 21:39:00,32.6,23.0,30.30,West,281,6.0,-999.0,68,-99.99,,,0.01,weatherlink.com 1.10,2013-02-10 02:39:00,
2013-02-09 21:55:00,32.9,24.0,30.31,NW,322,12.0,-999.0,69,-99.99,,,0.01,weatherlink.com 1.10,2013-02-10 02:55:00,
2013-02-09 22:09:00,33.1,23.0,30.31,NNW,331,7.0,-999.0,67,-99.99,,,0.01,weatherlink.com 1.10,2013-02-10 03:09:00,
2013-02-09 22:25:00,33.1,23.0,30.31,NW,325,7.0,-999.0,67,-99.99,,,0.01,weatherlink.com 1.10,2013-02-10 03:25:00,
2013-02-09 22:39:00,33.1,24.0,30.31,NW,318,7.0,-999.0,68,-99.99,,,0.01,weatherlink.com 1.10,2013-02-10 03:39:00,
2013-02-09 22:55:00,33.0,23.0,30.31,NNW,329,12.0,-999.0,67,-99.99,,,0.01,weatherlink.com 1.10,2013-02-10 03:55:00,
2013-02-09 23:09:00,33.1,22.0,30.32,NNW,328,6.0,-999.0,64,-99.99,,,0.01,weatherlink.com 1.10,2013-02-10 04:09:00,
2013-02-09 23:24:00,33.0,22.0,30.32,North,350,8.0,-999.0,64,-99.99,,,0.01,weatherlink.com 1.10,2013-02-10 04:24:00,
2013-02-09 23:40:00,32.9,23.0,30.33,NNW,346,7.0,-999.0,66,-99.99,,,0.01,weatherlink.com 1.10,2013-02-10 04:40:00,
2013-02-09 23:54:00,32.8,22.0,30.33,NNW,333,12.0,-999.0,64,-99.99,,,0.01,weatherlink.com 1.10,2013-02-10 04:54:00,